{"data":{"norad_id":61881,"intl_designator":"2024-204H","name":"STARLINK-11329 [DTC]","alt_names":[],"object_type":"PAYLOAD","status":"ACTIVE","operator":null,"country":"US","launch_date":"2024-11-09","launch_site_code":"AFWTR","launch_vehicle":null,"mission":null,"orbit_class":"UNKNOWN","rcs_meters":null,"size_class":null,"mass_kg":null,"dimensions":null,"purposes":["comms"],"wikipedia_slug":null,"has_3d_model":false,"image_url":null,"decayed_at":null,"tle_current":{"epoch":"2026-09-21T20:22:10.226208Z","epoch_age_seconds":72365,"freshness":"FRESH","line1":"1 61881U 24204H   26264.84872947 -.00000616  00000+0 -22497-6 0  9999","line2":"2 61881  53.1594 109.2725 0000951  74.0018 286.1105 15.69705151107724","mean_motion":15.69705151,"eccentricity":9.51e-5,"inclination_deg":53.1594,"raan_deg":109.2725,"arg_perigee_deg":74.0018,"mean_anomaly_deg":286.1105,"bstar":-2.2497e-7,"rev_number":10772,"period_min":91.736973601866,"perigee_km":359.09985427513,"apogee_km":360.38139859968,"semimajor_km":6737.8776264374,"source":"CELESTRAK","updated_at":"2026-09-22T09:00:49.445830Z"}}}